Tracking 27172 objects as of 2-Apr-2023
HD Live streaming from Space Station
objects crossing your sky now

SL-16 DEB

Track SL-16 DEB now!
10-day predictions


NORAD ID: 22347
Int'l Code: 1992-093AL
Perigee: 786.6 km
Apogee: 1,038.5 km
Inclination: 70.8 °
Period: 103.1 minutes
Semi major axis: 7283 km
RCS: 0.053 m2 (small)
Launch date: December 25, 1992
Source: Commonwealth of Independent States (former USSR) (CIS)
Launch site: TYURATAM MISSILE AND SPACE COMPLEX (TTMTR)

Note: This is SATELLITE DEBRIS
Your satellite tracking list
Your tracking list is empty




NASA's NSSDC Master Catalog

Two Line Element Set (TLE):
1 22347U 92093AL  23092.15840466  .00003568  00000-0  22977-2 0  9992
2 22347  70.8428 351.9273 0172969 294.7670 184.5734 13.96650703526025
Source of the keplerian elements: AFSPC